EZY35DZ LEBB-EGCC

Flight info

Callsign EZY35DZ
Flight time N/A
Altitude 36000
Route BISKA P87 BELEN DCT DIDIG UP87 MOKOR UN867 RINSO UM184 EKRAS UN867 AVANT UM184 HEMEL T420 ELVOS
Aircraft A320/M-SDE2E3FGHIJ1RWXYZ/LB1

Departure

Time 2025-12-30 13:36
Airport Bilbao Airport (LEBB)

Arrival

Time N/A
Airport Manchester Airport (EGCC)
Time Latitude Longitude Altitude Speed Heading
2025-12-30 13:04 43.30382 -2.90514 128 ft 0 kts 27°
2025-12-30 13:27 43.30371 -2.90522 124 ft 3 kts 28°
2025-12-30 13:27 43.30336 -2.90551 123 ft 3 kts 40°
2025-12-30 13:28 43.30318 -2.90589 125 ft 3 kts 121°
2025-12-30 13:28 43.30320 -2.90595 126 ft 0 kts 146°
2025-12-30 13:31 43.30254 -2.90534 125 ft 7 kts 146°
2025-12-30 13:31 43.30164 -2.90569 128 ft 7 kts 200°
2025-12-30 13:32 43.30088 -2.90475 126 ft 10 kts 113°
2025-12-30 13:32 43.29986 -2.90215 126 ft 17 kts 106°
2025-12-30 13:33 43.29871 -2.89900 125 ft 23 kts 114°
2025-12-30 13:33 43.29722 -2.89592 127 ft 0 kts 176°
2025-12-30 13:34 43.29715 -2.89591 127 ft 1 kts 177°
2025-12-30 13:34 43.29694 -2.89606 127 ft 10 kts 209°
2025-12-30 13:35 43.29648 -2.89802 124 ft 13 kts 283°
2025-12-30 13:35 43.29880 -2.90431 124 ft 120 kts 298°
2025-12-30 13:36 43.30797 -2.93156 1407 ft 179 kts 292°
2025-12-30 13:36 43.32012 -2.96766 2309 ft 209 kts 298°
2025-12-30 13:37 43.33980 -3.00128 3097 ft 253 kts 321°
2025-12-30 13:37 43.36824 -3.03268 5415 ft 255 kts 321°
2025-12-30 13:38 43.39314 -3.05941 6297 ft 229 kts 334°
2025-12-30 13:38 43.42725 -3.06230 8209 ft 270 kts 19°
2025-12-30 13:39 43.45399 -3.02656 10730 ft 283 kts 64°
2025-12-30 13:39 43.46679 -2.97903 12272 ft 310 kts 71°
2025-12-30 13:40 43.48459 -2.93634 14089 ft 322 kts 51°
2025-12-30 13:40 43.52093 -2.89884 16046 ft 337 kts 26°
2025-12-30 13:41 43.56540 -2.87545 17979 ft 347 kts 23°
2025-12-30 13:41 43.61118 -2.85165 19711 ft 356 kts 24°
2025-12-30 13:42 43.65819 -2.82702 21342 ft 366 kts 25°
2025-12-30 13:42 43.69902 -2.80859 22639 ft 378 kts 17°
2025-12-30 13:43 43.75100 -2.79189 24113 ft 388 kts 17°
2025-12-30 13:45 43.97198 -2.72375 28953 ft 427 kts 13°
2025-12-30 13:47 44.21373 -2.67248 33595 ft 441 kts 14°
2025-12-30 13:48 44.42173 -2.62600 36258 ft 417 kts 12°
2025-12-30 13:51 44.67722 -2.56841 36266 ft 413 kts 12°
2025-12-30 13:52 44.87704 -2.52310 36274 ft 416 kts 12°